Date String (YYYY-MM-DD hh:mm:ss) UTC,Instrument flags,Ambient pressure (hPa),Sample flow (lpm),Bypass flow (lpm),Sample temperature (°C),Ambient temperature (°C),ASC tube jacket temperature (°C),LED temperature (°C),Box temperature (°C),Sample RH (%),Span deviation,Mass concentration (μg/m³),Mass concentration (μg/m³),Mass concentration (μg/m³)
DateTimeUTC,F1_M11,P_M11,Q1_M11,Q2_M11,T1_M11,T2_M11,T3_M11,T4_M11,T5_M11,U1_M11,ZSPAN_M11,X0_M11,X2_M11,X1_M11
2023-03-11 03:00:00,,0812.3,5.01,0.00,23.6,21.9,00.0,32.4,25.3,17.8,0000.0,0003.70,0001.63,0001.18
2023-03-11 03:01:00,,0812.3,5.00,0.00,23.6,21.8,00.0,32.4,25.3,17.8,0000.0,0003.80,0001.60,0001.15
2023-03-11 03:02:00,,0812.2,4.99,0.00,23.6,21.8,00.0,32.4,25.3,17.8,0000.0,0004.01,0001.54,0001.12
2023-03-11 03:03:00,,0812.1,5.00,0.00,23.6,21.8,00.0,32.4,25.3,17.8,0000.0,0004.87,0001.52,0001.11
2023-03-11 03:04:00,,0812.0,4.99,0.00,23.6,21.9,00.0,32.4,25.3,17.9,0000.0,0005.92,0001.52,0001.10
2023-03-11 03:05:00,,0812.0,5.00,0.00,23.5,21.9,00.0,32.3,25.3,17.9,0000.0,0006.01,0001.53,0001.09
2023-03-11 03:06:00,,0812.0,5.00,0.00,23.5,21.9,00.0,32.3,25.3,17.9,0000.0,0006.08,0001.54,0001.10
2023-03-11 03:07:00,,0811.9,5.00,0.00,23.5,21.9,00.0,32.3,25.4,17.9,0000.0,0005.84,0001.54,0001.09
2023-03-11 03:08:00,,0811.9,5.00,0.00,23.5,21.9,00.0,32.3,25.3,17.9,0000.0,0005.07,0001.47,0001.08
2023-03-11 03:09:00,,0811.8,5.00,0.00,23.6,21.9,00.0,32.3,25.3,17.9,0000.0,0005.24,0001.51,0001.09
2023-03-11 03:10:00,,0811.9,5.00,0.00,23.6,22.0,00.0,32.3,25.3,17.9,0000.0,0005.65,0001.53,0001.09
2023-03-11 03:11:00,,0811.9,5.00,0.00,23.5,22.0,00.0,32.3,25.3,17.9,0000.0,0006.27,0001.53,0001.10
2023-03-11 03:12:00,,0812.0,5.02,0.00,23.5,21.9,00.0,32.3,25.3,17.9,0000.0,0006.31,0001.55,0001.12
2023-03-11 03:13:00,,0811.9,5.00,0.00,23.5,21.9,00.0,32.3,25.3,17.9,0000.0,0005.97,0001.61,0001.14
2023-03-11 03:14:00,,0811.8,4.99,0.00,23.5,21.9,00.0,32.3,25.3,17.9,0000.0,0005.56,0001.62,0001.14
2023-03-11 03:15:00,,0811.9,5.00,0.00,23.5,21.9,00.0,32.3,25.3,18.0,0000.0,0004.25,0001.63,0001.16
2023-03-11 03:16:00,,0811.8,5.00,0.00,23.5,21.9,00.0,32.3,25.3,18.0,0000.0,0005.15,0001.65,0001.20
2023-03-11 03:17:00,,0811.9,4.99,0.00,23.5,21.8,00.0,32.3,25.3,17.9,0000.0,0005.15,0001.69,0001.23
2023-03-11 03:18:00,,0811.8,5.00,0.00,23.5,21.8,00.0,32.3,25.3,17.9,0000.0,0005.16,0001.71,0001.25
2023-03-11 03:19:00,,0811.9,5.01,0.00,23.5,21.9,00.0,32.3,25.3,18.0,0000.0,0005.12,0001.72,0001.27
2023-03-11 03:20:00,,0811.9,5.00,0.00,23.5,21.9,00.0,32.3,25.3,18.1,0000.0,0005.25,0001.75,0001.28
2023-03-11 03:21:00,,0812.1,5.01,0.00,23.5,21.9,00.0,32.3,25.3,18.3,0000.0,0005.07,0001.77,0001.31
2023-03-11 03:22:00,,0812.1,5.00,0.00,23.5,21.8,00.0,32.3,25.3,18.6,0000.0,0004.22,0001.78,0001.31
2023-03-11 03:23:00,,0812.1,5.00,0.00,23.5,21.8,00.0,32.3,25.2,19.1,0000.0,0004.07,0001.71,0001.26
2023-03-11 03:24:00,,0812.0,4.99,0.00,23.5,21.7,00.0,32.3,25.2,19.1,0000.0,0005.84,0001.67,0001.22
2023-03-11 03:25:00,,0812.0,5.00,0.00,23.4,21.7,00.0,32.2,25.1,19.0,0000.0,0006.06,0001.61,0001.20
2023-03-11 03:26:00,,0812.0,5.01,0.00,23.4,21.7,00.0,32.2,25.1,19.0,0000.0,0006.08,0001.58,0001.17
2023-03-11 03:27:00,,0811.9,4.99,0.00,23.4,21.7,00.0,32.2,25.2,18.9,0000.0,0004.99,0001.53,0001.13
2023-03-11 03:28:00,,0811.8,5.00,0.00,23.4,21.8,00.0,32.2,25.2,19.0,0000.0,0005.07,0001.46,0001.08
2023-03-11 03:29:00,,0811.8,5.00,0.00,23.4,21.8,00.0,32.2,25.2,19.1,0000.0,0005.09,0001.37,0001.01
2023-03-11 03:30:00,,0811.8,4.99,0.00,23.4,21.9,00.0,32.2,25.2,19.2,0000.0,0004.99,0001.29,0000.95
2023-03-11 03:31:00,,0811.8,5.00,0.00,23.4,21.9,00.0,32.2,25.2,19.4,0000.0,0004.68,0001.17,0000.89
2023-03-11 03:32:00,,0811.9,5.00,0.00,23.4,21.9,00.0,32.2,25.1,19.5,0000.0,0004.46,0001.06,0000.81
2023-03-11 03:33:00,,0811.8,5.01,0.00,23.4,21.8,00.0,32.2,25.1,19.5,0000.0,0004.49,0001.00,0000.76
2023-03-11 03:34:00,,0811.8,5.00,0.00,23.4,21.7,00.0,32.2,25.1,19.7,0000.0,0004.68,0000.98,0000.74
2023-03-11 03:35:00,,0811.8,5.00,0.00,23.4,21.7,00.0,32.2,25.1,19.7,0000.0,0002.96,0000.92,0000.70
2023-03-11 03:36:00,,0811.8,4.99,0.00,23.3,21.7,00.0,32.2,25.0,19.8,0000.0,0003.04,0000.87,0000.66
2023-03-11 03:37:00,,0811.8,5.00,0.00,23.3,21.7,00.0,32.1,25.0,19.8,0000.0,0003.26,0000.84,0000.62
2023-03-11 03:38:00,,0811.7,5.01,0.00,23.3,21.6,00.0,32.1,25.0,19.8,0000.0,0004.94,0000.80,0000.58
2023-03-11 03:39:00,,0811.7,5.00,0.00,23.3,21.6,00.0,32.1,25.0,19.8,0000.0,0004.81,0000.76,0000.55
2023-03-11 03:40:00,,0811.8,5.00,0.00,23.3,21.5,00.0,32.1,25.0,19.9,0000.0,0004.70,0000.73,0000.52
2023-03-11 03:41:00,,0811.8,5.00,0.00,23.2,21.5,00.0,32.1,25.0,19.9,0000.0,0004.71,0000.70,0000.49
2023-03-11 03:42:00,,0811.9,5.01,0.00,23.2,21.5,00.0,32.1,24.9,20.0,0000.0,0004.55,0000.66,0000.47
2023-03-11 03:43:00,,0811.8,4.99,0.00,23.2,21.5,00.0,32.1,24.9,20.0,0000.0,0004.43,0000.62,0000.46
2023-03-11 03:44:00,,0811.8,5.00,0.00,23.2,21.5,00.0,32.0,24.9,20.0,0000.0,0004.33,0000.59,0000.44
2023-03-11 03:45:00,,0811.8,5.00,0.00,23.2,21.5,00.0,32.0,24.9,20.0,0000.0,0004.14,0000.57,0000.43
2023-03-11 03:46:00,,0811.9,5.00,0.00,23.1,21.4,00.0,32.0,24.9,20.0,0000.0,0003.95,0000.56,0000.43
2023-03-11 03:47:00,,0811.8,5.00,0.00,23.1,21.4,00.0,32.0,24.8,20.1,0000.0,0003.50,0000.56,0000.43
2023-03-11 03:48:00,,0811.8,5.00,0.00,23.1,21.3,00.0,32.0,24.7,20.2,0000.0,0002.80,0000.55,0000.42
2023-03-11 03:49:00,,0811.9,5.00,0.00,23.1,21.3,00.0,31.9,24.7,20.2,0000.0,0001.42,0000.56,0000.41
2023-03-11 03:50:00,,0811.9,5.00,0.00,23.0,21.3,00.0,31.9,24.7,20.2,0000.0,0001.33,0000.55,0000.41
2023-03-11 03:51:00,,0811.9,5.00,0.00,23.0,21.3,00.0,31.9,24.8,20.2,0000.0,0001.25,0000.54,0000.40
2023-03-11 03:52:00,,0811.9,5.02,0.00,23.0,21.3,00.0,31.9,24.8,20.2,0000.0,0001.21,0000.55,0000.40
2023-03-11 03:53:00,,0811.9,5.00,0.00,23.0,21.3,00.0,31.9,24.8,20.0,0000.0,0001.25,0000.58,0000.40
2023-03-11 03:54:00,,0811.8,5.00,0.00,23.0,21.3,00.0,31.9,24.8,19.7,0000.0,0001.33,0000.62,0000.41
2023-03-11 03:55:00,,0811.9,5.00,0.00,23.0,21.4,00.0,31.9,24.8,19.9,0000.0,0001.30,0000.65,0000.42
2023-03-11 03:56:00,,0811.8,5.00,0.00,23.0,21.4,00.0,31.9,24.8,19.9,0000.0,0001.27,0000.66,0000.42
2023-03-11 03:57:00,,0811.9,5.01,0.00,23.0,21.4,00.0,31.9,24.8,19.9,0000.0,0001.34,0000.67,0000.43
2023-03-11 03:58:00,,0811.9,4.99,0.00,23.0,21.3,00.0,31.9,24.9,19.9,0000.0,0001.36,0000.66,0000.43
2023-03-11 03:59:00,,0811.9,5.00,0.00,23.0,21.4,00.0,31.9,24.8,19.8,0000.0,0001.34,0000.65,0000.45
